ONEWEB-0094, 45450

Orbit data source: Space-Track

ONEWEB-0094, 45450 is a payload satellite owned by One Web (UK) in LEO that was launched on Sat, 21 Mar 2020 UTC via a SOYUZ-2-1B launch vehicle from the Tyuratam Missile And Space Complex (TTMTR). Payload-class satellites include a variety of spacecraft equipped with specific instruments for various scientific and technological missions. These include communications satellites like Starlink; space stations such as the ISS; scientific satellites like the Hubble; Earth observation satellites from companies like Planet Labs, Umbra, and HawkEye 360; GPS; miniature CubeSats for education and research; and military/defense satellites.

Loading next visibility...
Identifier
45450, 2020-020AC
Orbit
LEO
Last TLE update
15 hours ago
Origin
Manufacturer
One Web
Mission
Operational Commercial Communications
Bus & Motor
ARROW, Unknown motor
Mass
148 kg wet, ~140 kg dry
Launch date (UTC)
2020-03-21 (5 years ago)
Launch vehicle
SOYUZ-2-1B
Launch site
Tyuratam Missile And Space Complex (TTMTR)
Object type
Payload
Rocket body
Debris
Shape & HBR
Trap Box + 2 Pan, 5 m
Radar Cross Section
2.957 m², Medium (>0.1 m² and < 1m²)

Expand to show TLE details & history

TLE from 15 hours ago
0 ONEWEB-0094
1 45450U 20020AC  25181.77272744  .00000060  00000-0  12014-3 0  9996
2 45450  87.9059  75.7955 0001798  79.2208 280.9126 13.17648003260031
Epoch: 2025-06-30T18:32Z
TLE epoch observation values (Epoch: 2025-06-30T18:32:43.65Z)
Latitude
-0.00003°
Longitude
-121.46411°
Altitude
1,196.358 km
Speed
7.256 km/s
True Right ascension
05h 03m 10s
True Declination
0° 00' 00"
Sunlit
Object was in daylight at epoch
Visualization orbit readout
Latitude
74.97796°
Longitude
50.61909°
Altitude
1,205.416 km
Speed
7.258 km/s
Apparent Right ascension
10h 52m 08s
Apparent Declination
34° 42' 30"
Sunlit
Object is in daylight
Visualization observer readout
Local Sidereal Time
21:17:39
Azimuth
340.302° N
Elevation
-12.258°
Doppler factor
1
Orbital elements
Apogee altitude
1,192.187 km
Perigee altitude
1,189.465 km
Semi-major axis
7,568.963 km
Eccentricity
0.00018
Inclination
87.9059°
RAAN
75.7955°
Arg. of periapsis
79.2208°
True anomaly
Unknown
Mean anomaly
280.9126°
Eccentric anomaly
Unknown
Mean motion
3.29601 °/min
Orbital period
109.22 mins
BSTAR
0.00012014
Loading maneuver chart data...
Loading SW <> Apogee altitude chart data...
Loading historical data...
Loading historical data...
Loading historical data...
Loading historical data...
Loading historical data...
Loading historical data...
Loading historical data...

ONEWEB-0094 Visibility forecast

Observer location: undefined°, undefined°

Span
Click to sort rows by Start time (UTC) header in descending order
Start Az.
Max El. time (UTC)
Max El. Az.
Max El.
End time (UTC)
End Az.
12 mins2025-07-01 16:31:20.566Z143.819° SSE2025-07-01 16:37:20.566Z79.393° E32.163°2025-07-01 16:43:20.566Z17.537° NNE
11 mins2025-07-01 18:21:20.566Z219.306° SW2025-07-01 18:26:20.566Z274.41° WNW30.759°2025-07-01 18:32:20.566Z340.722° N
10 mins2025-07-02 03:58:20.566Z28.044° NE2025-07-02 04:03:20.566Z82.287° E26.102°2025-07-02 04:08:20.566Z132.718° SE
12 mins2025-07-02 05:47:20.566Z343.589° N2025-07-02 05:52:20.566Z285.461° WNW36.724°2025-07-02 05:59:20.566Z205.851° SW
|